This is the latest recevied weather packets stored in our database for station/object VE1RCI-13. If no packets are shown the sender has not sent any weather packets the latest 10 day(s).
| Time | Temp. | Humidity | Pressure | Rain* | Wind** | Luminosity | Snow |
|---|---|---|---|---|---|---|---|
| 1777995296 | 17.22° C | 56% | 1012.4 hPa | - | - | - | - |
| 1777994684 | 16.67° C | 57% | 1012.3 hPa | - | - | - | - |
| 1777994072 | 16.67° C | 57% | 1012.3 hPa | - | - | - | - |
| 1777993460 | 16.67° C | 58% | 1012.4 hPa | - | - | - | - |
| 1777992848 | 16.67° C | 58% | 1012.6 hPa | - | - | - | - |
| 1777992236 | 16.67° C | 57% | 1012.6 hPa | - | - | - | - |
| 1777991624 | 16.67° C | 58% | 1012.6 hPa | - | - | - | - |
| 1777991011 | 16.11° C | 58% | 1012.5 hPa | - | - | - | - |
| 1777990399 | 16.11° C | 58% | 1012.4 hPa | - | - | - | - |
| 1777989787 | 16.11° C | 59% | 1012.3 hPa | - | - | - | - |
| 1777989175 | 15.56° C | 61% | 1012.3 hPa | - | - | - | - |
| 1777988563 | 15° C | 61% | 1012.2 hPa | - | - | - | - |
| 1777987951 | 14.44° C | 61% | 1012 hPa | - | - | - | - |
| 1777987339 | 14.44° C | 62% | 1012.3 hPa | - | - | - | - |
| 1777986727 | 13.89° C | 61% | 1012.1 hPa | - | - | - | - |
| 1777986114 | 13.89° C | 62% | 1012.3 hPa | - | - | - | - |
| 1777985502 | 13.89° C | 63% | 1012.3 hPa | - | - | - | - |
| 1777984890 | 13.33° C | 64% | 1012.2 hPa | - | - | - | - |
| 1777984278 | 13.33° C | 64% | 1012.1 hPa | - | - | - | - |
| 1777983665 | 12.78° C | 64% | 1012.2 hPa | - | - | - | - |
| 1777983053 | 12.78° C | 64% | 1012.1 hPa | - | - | - | - |
| 1777982441 | 12.78° C | 65% | 1012.1 hPa | - | - | - | - |
| 1777981829 | 12.78° C | 65% | 1012 hPa | - | - | - | - |
| 1777981217 | 12.22° C | 65% | 1011.9 hPa | - | - | - | - |
| 1777980605 | 12.22° C | 65% | 1011.9 hPa | - | - | - | - |
* Rain since midnight (hover to see other rain measurements)
** Current wind speed in m/s (hover to see current wind gust speed)